Regional Weather Roundup
Issued by NWS State College, PA

Home | Current Version | Previous Version | Graphics & Text | Print | Product List | Glossary On
Versions: 1 2 3 4 5 6 7 8 9 10 11 12 13 14 15 16 17 18 19 20 21 22 23 24 25 26 27 28 29 30 31 32 33 34 35 36 37 38 39 40 41 42 43 44 45 46 47 48 49 50
000
ASUS41 KCTP 250110
RWRCTP

REGIONAL WEATHER ROUNDUP
NATIONAL WEATHER SERVICE STATE COLLEGE PA
900 PM EDT MON JUL 24 2017

Note: "fair" indicates few or no clouds below 12,000 feet with no
significant weather and/or obstructions to visibility.

* = STATION THAT DOES NOT REPORT PRECIPITATION /E.G. RAIN...SNOW...ETC/
    THUNDER OR FOG.

PAZ002>004-007>009-013>016-020>023-029>032-250200-
WESTERN PENNSYLVANIA

CITY           SKY/WX    TMP DP  RH WIND       PRES   REMARKS
ERIE           CLOUDY    66  57  72 NW12G21   29.96R
MEADVILLE      CLOUDY    63  58  83 W8G17     29.99R
FRANKLIN*      CLOUDY    63  54  72 NW8       29.99S
NEW CASTLE     CLOUDY    66  57  72 NW8       30.01R
BEAVER COUNTY  CLOUDY    66  55  68 NW8       29.99
BUTLER*        CLOUDY    66  55  68 NW3       29.99R
PITTSBURGH INT MOCLDY    68  59  73 NW8       29.98R
PITTSBURGH     PTCLDY    68  56  65 NW10G17   29.98R
INDIANA*       MOCLDY    68  59  73 NW6       30.00R
LATROBE        CLOUDY    70  59  68 NW10      29.99R
WASHINGTON CO* CLOUDY    68  57  68 N5        30.00R
$$

PAZ004>006-010>012-017>019-024>028-033>037-041-042-045-046-049>053-250200-
CENTRAL PENNSYLVANIA

CITY           SKY/WX    TMP DP  RH WIND       PRES   REMARKS
BRADFORD       CLOUDY    62  58  86 W6        29.96R
DUBOIS         CLOUDY    64  55  72 NW12G20   29.96R
CLEARFIELD     CLOUDY    68  58  70 W8        29.95R
JOHNSTOWN      CLOUDY    66  58  75 NW8       29.99R
ALTOONA        PTCLDY    70  59  68 NW10      29.94R
STATE COLLEGE  PTCLDY    72  57  60 NW8       29.92R
WILLIAMSPORT   CLEAR     74  62  66 W8        29.84R
SELINSGROVE    CLEAR     71  69  93 W3        29.86R
FT INDIANTOWN  PTCLDY    71  71 100 CALM      29.84S
CAPITAL CITY   CLOUDY    74  69  85 W3        29.84R
HARRISBURG     MOCLDY    74  71  91 NW6       29.83S
YORK           CLEAR     71  71 100 CALM      29.85R
$$

PAZ038>040-043-044-047-048-054-055-060>062-067>071-250200-
EASTERN PENNSYLVANIA

CITY           SKY/WX    TMP DP  RH WIND       PRES   REMARKS
SCRANTON       PTCLDY    69  66  90 VRB5      29.86R
MOUNT POCONO   CLOUDY    60  60 100 SE8       29.91R
ALLENTOWN      CLOUDY    69  65  86 NE9       29.85S
QUAKERTOWN*    CLOUDY    68  68 100 E6        29.85F
READING        MOCLDY    70  70 100 CALM      29.83S FOG
LANCASTER      CLOUDY    73  72  96 E3        29.84R
COATESVILLE    NOT AVBL
POTTSTOWN      CLOUDY    69  69 100 CALM      29.86R
BLUE BELL      CLOUDY    66  66 100 CALM      29.86S
DOYLESTOWN     CLOUDY    67  67 100 VRB3      29.84F
WILLOW GROVE   NOT AVBL
NORTH PHILA    LGT RAIN  71  68  90 E8        29.88F
PHILADELPHIA   TSTM      71  68  90 VRB5      29.88R FOG
$$



USA.gov is the U.S. government's official web portal to all federal, state and local government web resources and services.